Regional Weather Roundup
Issued by NWS Albany, NY

Home | Current Version | Previous Version | Text Only | Print | Product List | Glossary On
Versions: 1 2 3 4 5 6 7 8 9 10 11 12 13 14 15 16 17 18 19 20 21 22 23 24 25 26 27 28 29 30 31 32 33 34 35 36 37 38 39 40 41 42 43 44 45 46 47 48 49 50
216
ASUS41 KALY 290010
RWRALY

NEW YORK STATE HOURLY WEATHER ROUNDUP
NATIONAL WEATHER SERVICE ALBANY NY
800 PM EDT SAT MAY 28 2016

NOTE: "FAIR" INDICATES FEW OR NO CLOUDS BELOW 12,000 FEET WITH NO
SIGNIFICANT WEATHER AND/OR NO OBSTRUCTIONS TO VISIBILITY.

NYZ032-033-038>043-046>054-057>066-NYZ062>081-082-084-290100-
EAST


CITY           SKY/WX    TMP DP  RH WIND       PRES   REMARKS
ALBANY         MOCLDY    88  59  37 CALM      30.05R
GLENS FALLS    PTCLDY    83  67  58 CALM      30.04S
POUGHKEEPSIE   PTCLDY    85  67  54 SW3       30.06R
NEWBURGH       PTCLDY    82  70  65 SW12      30.10R
MONTGOMERY     PTCLDY    80  69  69 SW9       30.08R
WHITE PLAINS   PTCLDY    76  67  73 SE6       30.10R
ISLIP          PTCLDY    72  56  57 SW9G18    30.11S
NEW YORK CITY  MOCLDY    82  69  64 S5        30.08R
CENTRAL PARK   PTCLDY    82  65  56 CALM      30.11S
$$

NYZ005>009-017-018-044>046-055-056-290100-
CENTRAL


CITY           SKY/WX    TMP DP  RH WIND       PRES   REMARKS
FULTON         CLEAR     84  66  54 CALM      30.05S
SYRACUSE       PTCLDY    83  63  50 N6        30.05R
ROME           CLEAR     82  65  56 NE3       30.07R
ELMIRA         CLOUDY    79  66  64 CALM      30.10R
BINGHAMTON     CLEAR     83  60  45 CALM      30.13R
MONTICELLO     CLOUDY    73  64  73 CALM      30.15S
$$

NYZ026>034-041>043-087-290100-
NORTH


CITY           SKY/WX    TMP DP  RH WIND       PRES   REMARKS
WATERTOWN      CLEAR     81  62  52 CALM      30.05R
FORT DRUM      NOT AVBL
MASSENA        PTCLDY    84  69  60 CALM      30.05R HAZE
SARANAC LAKE   PTCLDY    76  63  64 NE7       30.12R
PLATTSBURGH    CLEAR     81  58  45 N8        30.06F
$$

NYZ001>004-010>016-019>021-085-290100-
WEST


CITY           SKY/WX    TMP DP  RH WIND       PRES   REMARKS
NIAGARA FALLS  MOCLDY    82  63  52 S13       30.07R
BUFFALO        CLOUDY    76  68  76 CALM      30.08R
DUNKIRK        CLOUDY    76  66  71 SE7       30.08F
JAMESTOWN      CLOUDY    72  64  78 NE5       30.15R
WELLSVILLE     CLOUDY    75  65  70 E6        30.18R
ROCHESTER      MOCLDY    84  66  54 SW10      30.07R
PENN YAN       CLOUDY    81  65  58 W5        30.11R
$$

             KEY
       WCI = WIND CHILL INDEX
       VSB = VISIBILITY
       HX  = HEAT INDEX
$$




USA.gov is the U.S. government's official web portal to all federal, state and local government web resources and services.